FW9628 Weather Reports


Display with metric or nautical units.
time (UTC)temp
F
wind
direction
speed
MPH
gust
MPH
rain 1hr
in
rain 24hr
in
rain mn
in
humidity
%
barometer
mb
20260906233034 61 140 1.0 5.0 0.00 0.00 0.00 78 1018.3
20260906231539 60 140 1.0 4.0 0.00 0.00 0.00 80 1018.4
20260906230042 60 0 1.0 5.0 0.00 0.00 0.00 81 1018.5
20260906224540 59 140 3.0 5.0 0.00 0.00 0.00 83 1018.6
20260906223038 59 140 2.0 4.0 0.00 0.00 0.00 83 1018.9
20260906221535 59 140 2.0 5.0 0.00 0.00 0.00 84 1018.8
20260906220035 58 0 1.0 3.0 0.00 0.00 0.00 87 1018.8
20260906214535 57 140 3.0 7.0 0.00 0.00 0.00 87 1018.9
20260906213035 57 140 2.0 6.0 0.00 0.00 0.00 87 1019.0
20260906211536 58 140 4.0 9.0 0.00 0.00 0.00 86 1019.2
20260906210036 59 140 2.0 6.0 0.00 0.00 0.00 82 1018.9
20260906203035 59 140 3.0 8.0 0.00 0.00 0.00 80 1019.4
20260906201544 59 140 3.0 7.0 0.00 0.00 0.00 79 1019.4
20260906200035 59 140 3.0 9.0 0.00 0.00 0.00 79 1019.5
20260906194537 59 140 5.0 10.0 0.00 0.00 0.00 78 1019.6
20260906193035 60 140 5.0 8.0 0.00 0.00 0.00 77 1019.7
20260906191534 60 140 6.0 10.0 0.00 0.00 0.00 76 1019.7
20260906184536 58 140 7.0 12.0 0.00 0.00 0.00 79 1019.9
20260906183036 59 140 8.0 12.0 0.00 0.00 0.00 78 1019.9
20260906181535 59 140 4.0 9.0 0.00 0.00 0.00 77 1020.0
20260906180049 59 140 4.0 10.0 0.00 0.00 0.00 77 1020.1
20260906174537 60 140 5.0 10.0 0.00 0.00 0.00 75 1020.1
20260906173036 60 140 5.0 8.0 0.00 0.00 0.00 75 1020.1
20260906171536 60 140 4.0 6.0 0.00 0.00 0.00 76 1020.1
20260906170033 58 140 4.0 9.0 0.00 0.00 0.00 78 1020.0
20260906164534 57 140 2.0 5.0 0.00 0.00 0.00 81 1020.2
20260906163035 57 140 3.0 8.0 0.00 0.00 0.00 82 1020.4
20260906161542 57 140 1.0 8.0 0.00 0.00 0.00 83 1020.4
20260906154543 56 140 4.0 7.0 0.00 0.00 0.00 84 1020.4
20260906153036 56 140 5.0 8.0 0.00 0.00 0.00 84 1020.5
20260906151536 56 141 1.0 5.0 0.00 0.00 0.00 84 1020.7
20260906144537 55 141 2.0 7.0 0.00 0.00 0.00 88 1021.0
20260906143035 54 141 3.0 6.0 0.00 0.00 0.00 88 1020.9
20260906141533 54 141 3.0 6.0 0.00 0.00 0.00 89 1020.9
20260906140038 54 141 1.0 3.0 0.00 0.00 0.00 90 1021.0
20260906134535 54 141 2.0 5.0 0.00 0.00 0.00 90 1021.1
20260906133036 54 141 1.0 5.0 0.00 0.00 0.00 90 1021.1
20260906131536 53 140 3.0 4.0 0.00 0.00 0.00 90 1021.5
20260906130047 53 141 2.0 4.0 0.00 0.00 0.00 91 1021.6
20260906123042 53 0 0.0 2.0 0.00 0.00 0.00 91 1021.2
20260906121536 53 140 2.0 3.0 0.00 0.00 0.00 91 1021.4
20260906114539 53 140 0.0 1.0 0.00 0.00 0.00 92 1021.1
20260906113035 53 141 0.0 2.0 0.00 0.00 0.00 92 1021.3
20260906111543 53 140 0.0 2.0 0.00 0.00 0.00 93 1021.7
20260906103044 52 0 0.0 1.0 0.00 0.00 0.00 93 1022.0
20260906101536 52 0 0.0 1.0 0.00 0.00 0.00 93 1022.1
20260906100033 52 0 0.0 1.0 0.00 0.00 0.00 92 1022.1
20260906094545 52 0 0.0 3.0 0.00 0.00 0.00 92 1022.1
20260906093039 52 141 2.0 4.0 0.00 0.00 0.00 91 1022.2
20260906091537 53 140 1.0 4.0 0.00 0.00 0.00 89 1022.1
20260906090035 53 0 0.0 0.0 0.00 0.00 0.00 89 1022.3
20260906084534 53 0 0.0 0.0 0.00 0.00 0.00 89 1022.7
20260906083034 53 0 0.0 0.0 0.00 0.00 0.00 89 1022.6
20260906081532 53 0 0.0 1.0 0.00 0.00 0.00 89 1022.8
20260906080029 53 0 0.0 1.0 0.00 0.00 0.00 88 1022.7
20260906074538 53 140 0.0 2.0 0.00 0.00 0.00 88 1022.7
20260906073034 53 0 0.0 1.0 0.00 0.00 0.00 88 1022.9
20260906070036 53 0 0.0 2.0 0.00 0.00 0.00 88 1023.0
20260906063039 53 140 0.0 2.0 0.00 0.00 0.00 87 1022.9
20260906061535 53 140 0.0 3.0 0.00 0.00 0.00 87 1023.1
20260906060036 53 141 0.0 2.0 0.00 0.00 0.00 87 1023.1
20260906053036 53 141 1.0 4.0 0.00 0.00 0.00 87 1023.2
20260906051537 53 0 0.0 3.0 0.00 0.00 0.00 86 1023.1
20260906043033 53 141 2.0 5.0 0.00 0.00 0.00 86 1023.0
20260906041533 53 140 3.0 5.0 0.00 0.00 0.00 86 1022.8
20260906040045 54 141 2.0 7.0 0.00 0.00 0.00 85 1022.9
20260906034546 54 141 3.0 6.0 0.00 0.00 0.00 85 1023.0
20260906033035 54 140 3.0 7.0 0.00 0.00 0.00 84 1023.1
20260906031602 54 141 0.0 5.0 0.00 0.00 0.00 84 1023.1
20260906030033 54 141 2.0 4.0 0.00 0.00 0.00 84 1023.1
20260906024553 54 0 1.0 2.0 0.00 0.00 0.00 84 1023.1
20260906023041 54 140 0.0 2.0 0.00 0.00 0.00 84 1023.0
20260906021536 54 141 0.0 1.0 0.00 0.00 0.00 83 1022.9
20260906020033 54 140 1.0 3.0 0.00 0.00 0.00 83 1022.9
20260906014536 54 140 0.0 2.0 0.00 0.00 0.00 82 1022.8
20260906013033 54 0 0.0 2.0 0.00 0.00 0.00 82 1022.7
20260906011535 54 141 0.0 2.0 0.00 0.00 0.00 82 1022.7
20260906010045 54 141 0.0 2.0 0.00 0.00 0.00 82 1022.7
20260906001538 55 0 0.0 1.0 0.00 0.00 0.00 82 1022.7
20260906000039 54 141 0.0 3.0 0.00 0.00 0.00 83 1022.7